Time,TemperatureF,DewpointF,PressureIn,WindDirection,WindDirectionDegrees,WindSpeedMPH,WindSpeedGustMPH,Humidity,HourlyPrecipIn,Conditions,Clouds,dailyrainin,SoftwareType,DateUTC
2013-04-22 00:01:00,42.6,38.7,30.14,NW,315,0.0,0.0,86,0.00,RA,FEW,0.00,WeatherDisplay:10.37,2013-04-22 07:01:00,
2013-04-22 00:06:00,42.6,38.7,30.14,NW,315,0.0,0.0,86,0.00,RA,FEW,0.00,WeatherDisplay:10.37,2013-04-22 07:06:00,
2013-04-22 00:11:00,42.6,38.7,30.15,North,0,1.1,1.1,86,0.00,CLR,FEW,0.00,WeatherDisplay:10.37,2013-04-22 07:11:00,
2013-04-22 00:16:00,42.4,38.5,30.15,NW,315,6.9,6.9,86,0.00,CLR,FEW,0.00,WeatherDisplay:10.37,2013-04-22 07:16:00,
2013-04-22 00:21:00,42.6,38.7,30.15,NW,315,0.0,0.0,86,0.00,CLR,FEW,0.00,WeatherDisplay:10.37,2013-04-22 07:21:00,
2013-04-22 00:26:00,42.6,38.7,30.15,NW,315,0.0,0.0,86,0.00,CLR,FEW,0.00,WeatherDisplay:10.37,2013-04-22 07:26:00,
2013-04-22 00:31:00,42.6,38.7,30.15,NW,315,0.0,0.0,86,0.00,CLR,FEW,0.00,WeatherDisplay:10.37,2013-04-22 07:31:00,
2013-04-22 00:36:00,42.6,38.7,30.15,WNW,292,0.0,0.0,86,0.00,CLR,FEW,0.00,WeatherDisplay:10.37,2013-04-22 07:36:00,
2013-04-22 00:41:00,42.6,38.7,30.16,NNW,338,8.1,8.1,86,0.00,CLR,FEW,0.00,WeatherDisplay:10.37,2013-04-22 07:41:00,
2013-04-22 00:46:00,42.6,38.4,30.16,WNW,292,6.9,7.4,85,0.00,CLR,FEW,0.00,WeatherDisplay:10.37,2013-04-22 07:46:00,
2013-04-22 00:51:00,42.8,38.3,30.16,NNW,338,12.7,12.7,84,0.00,CLR,FEW,0.00,WeatherDisplay:10.37,2013-04-22 07:51:00,
2013-04-22 00:56:00,43.0,37.9,30.16,NNW,338,7.2,7.2,82,0.02,RA,FEW,0.02,WeatherDisplay:10.37,2013-04-22 07:56:00,
2013-04-22 01:01:00,43.0,37.5,30.16,WNW,292,6.9,6.9,81,0.02,RA,FEW,0.02,WeatherDisplay:10.37,2013-04-22 08:01:00,
2013-04-22 01:06:00,43.0,37.2,30.17,WNW,292,9.4,9.4,80,0.02,,FEW,0.02,WeatherDisplay:10.37,2013-04-22 08:06:00,
2013-04-22 01:11:00,43.0,37.2,30.17,NW,315,6.0,6.0,80,0.02,CLR,FEW,0.02,WeatherDisplay:10.37,2013-04-22 08:11:00,
2013-04-22 01:16:00,43.0,36.9,30.17,NNW,338,4.6,4.6,79,0.02,CLR,FEW,0.02,WeatherDisplay:10.37,2013-04-22 08:16:00,
2013-04-22 01:21:00,43.0,36.9,30.17,NNW,338,5.8,5.8,79,0.02,CLR,FEW,0.02,WeatherDisplay:10.37,2013-04-22 08:21:00,
2013-04-22 01:26:00,42.6,36.9,30.17,NNW,338,3.5,0.0,80,0.02,CLR,FEW,0.02,WeatherDisplay:10.37,2013-04-22 08:26:00,
2013-04-22 01:31:00,42.6,36.9,30.17,NNW,338,2.3,2.3,80,0.02,CLR,FEW,0.02,WeatherDisplay:10.37,2013-04-22 08:31:00,
2013-04-22 01:36:00,42.4,36.4,30.18,NW,315,8.3,8.3,79,0.02,CLR,FEW,0.02,WeatherDisplay:10.37,2013-04-22 08:36:00,
2013-04-22 01:41:00,42.4,36.1,30.18,NNW,338,8.1,8.1,78,0.02,CLR,FEW,0.02,WeatherDisplay:10.37,2013-04-22 08:41:00,
2013-04-22 01:46:00,42.4,36.1,30.19,North,0,9.2,9.6,78,0.02,CLR,FEW,0.02,WeatherDisplay:10.37,2013-04-22 08:46:00,
2013-04-22 01:51:00,42.1,35.7,30.19,North,0,8.3,8.3,78,0.02,CLR,FEW,0.02,WeatherDisplay:10.37,2013-04-22 08:51:00,
2013-04-22 01:56:00,42.1,35.7,30.19,NNE,22,7.4,7.4,78,0.00,CLR,FEW,0.02,WeatherDisplay:10.37,2013-04-22 08:56:00,
2013-04-22 02:01:00,41.7,35.4,30.19,NW,315,5.8,6.2,78,0.00,CLR,FEW,0.02,WeatherDisplay:10.37,2013-04-22 09:01:00,
2013-04-22 02:06:00,41.4,35.0,30.19,NNW,338,6.9,6.9,78,0.00,CLR,FEW,0.02,WeatherDisplay:10.37,2013-04-22 09:06:00,
2013-04-22 02:11:00,41.0,34.7,30.19,NW,315,9.2,9.2,78,0.00,CLR,FEW,0.02,WeatherDisplay:10.37,2013-04-22 09:11:00,
2013-04-22 02:16:00,41.2,34.2,30.20,NW,315,11.5,11.5,76,0.00,CLR,FEW,0.02,WeatherDisplay:10.37,2013-04-22 09:16:00,
2013-04-22 02:21:00,41.4,34.0,30.19,WNW,292,10.4,10.4,75,0.00,CLR,FEW,0.02,WeatherDisplay:10.37,2013-04-22 09:21:00,
2013-04-22 02:26:00,41.4,34.0,30.20,WNW,292,4.9,4.9,75,0.00,CLR,FEW,0.02,WeatherDisplay:10.37,2013-04-22 09:26:00,
2013-04-22 02:31:00,41.2,33.5,30.20,WNW,292,9.2,9.2,74,0.00,CLR,FEW,0.02,WeatherDisplay:10.37,2013-04-22 09:31:00,
2013-04-22 02:36:00,41.0,33.3,30.20,NNW,338,6.9,6.9,74,0.00,CLR,FEW,0.02,WeatherDisplay:10.37,2013-04-22 09:36:00,
2013-04-22 02:41:00,40.8,32.8,30.20,NNW,338,8.3,8.3,73,0.00,CLR,FEW,0.02,WeatherDisplay:10.37,2013-04-22 09:41:00,
2013-04-22 02:46:00,40.8,33.2,30.20,NNW,338,7.8,7.8,74,0.00,CLR,FEW,0.02,WeatherDisplay:10.37,2013-04-22 09:46:00,
2013-04-22 02:51:00,40.3,33.0,30.21,NNW,338,6.9,6.9,75,0.00,CLR,FEW,0.02,WeatherDisplay:10.37,2013-04-22 09:51:00,
2013-04-22 02:56:00,39.9,32.6,30.20,NW,315,0.0,0.0,75,0.00,CLR,FEW,0.02,WeatherDisplay:10.37,2013-04-22 09:56:00,
2013-04-22 03:01:00,39.9,32.6,30.21,NNW,338,5.4,5.4,75,0.00,CLR,FEW,0.02,WeatherDisplay:10.37,2013-04-22 10:01:00,
2013-04-22 03:06:00,39.7,32.5,30.21,North,0,3.5,3.5,75,0.00,CLR,FEW,0.02,WeatherDisplay:10.37,2013-04-22 10:06:00,
2013-04-22 03:11:00,39.6,32.3,30.22,ESE,112,3.5,4.0,75,0.00,CLR,FEW,0.02,WeatherDisplay:10.37,2013-04-22 10:11:00,
2013-04-22 03:16:00,39.4,32.4,30.22,ESE,112,0.0,0.0,76,0.00,CLR,FEW,0.02,WeatherDisplay:10.37,2013-04-22 10:16:00,
2013-04-22 03:21:00,39.0,32.1,30.22,ESE,112,3.6,3.6,76,0.00,CLR,FEW,0.02,WeatherDisplay:10.37,2013-04-22 10:21:00,
2013-04-22 03:26:00,39.0,32.1,30.23,ESE,112,0.0,0.0,76,0.00,CLR,FEW,0.02,WeatherDisplay:10.37,2013-04-22 10:26:00,
2013-04-22 03:31:00,38.8,31.9,30.23,ESE,112,0.0,0.0,76,0.00,CLR,FEW,0.02,WeatherDisplay:10.37,2013-04-22 10:31:00,
2013-04-22 03:36:00,38.5,31.6,30.23,ESE,112,0.0,0.0,76,0.00,CLR,FEW,0.02,WeatherDisplay:10.37,2013-04-22 10:36:00,
2013-04-22 03:41:00,38.5,31.6,30.23,ESE,112,0.0,0.0,76,0.00,CLR,FEW,0.02,WeatherDisplay:10.37,2013-04-22 10:41:00,
2013-04-22 03:46:00,38.3,31.7,30.24,ESE,112,2.7,2.7,77,0.00,CLR,FEW,0.02,WeatherDisplay:10.37,2013-04-22 10:46:00,
2013-04-22 03:51:00,37.9,31.4,30.24,ESE,112,3.5,3.5,77,0.00,CLR,FEW,0.02,WeatherDisplay:10.37,2013-04-22 10:51:00,
2013-04-22 03:56:00,37.9,31.7,30.24,ESE,112,0.0,0.0,78,0.00,CLR,FEW,0.02,WeatherDisplay:10.37,2013-04-22 10:56:00,
2013-04-22 04:01:00,37.6,31.3,30.24,ESE,112,0.0,0.0,78,0.00,CLR,FEW,0.02,WeatherDisplay:10.37,2013-04-22 11:01:00,
2013-04-22 04:06:00,37.4,31.2,30.24,ESE,112,0.0,0.0,78,0.00,CLR,FEW,0.02,WeatherDisplay:10.37,2013-04-22 11:06:00,
2013-04-22 04:11:00,37.2,31.3,30.25,ESE,112,0.0,0.0,79,0.00,CLR,FEW,0.02,WeatherDisplay:10.37,2013-04-22 11:11:00,
2013-04-22 04:16:00,37.0,31.4,30.25,ESE,112,3.5,3.6,80,0.00,CLR,FEW,0.02,WeatherDisplay:10.37,2013-04-22 11:16:00,
2013-04-22 04:21:00,36.5,30.9,30.25,SE,135,3.5,3.5,80,0.00,CLR,FEW,0.02,WeatherDisplay:10.37,2013-04-22 11:21:00,
2013-04-22 04:26:00,36.1,30.6,30.26,SSW,202,0.0,0.0,80,0.00,CLR,FEW,0.02,WeatherDisplay:10.37,2013-04-22 11:26:00,
2013-04-22 04:31:00,35.8,30.5,30.27,SSW,202,0.0,0.0,81,0.00,CLR,FEW,0.02,WeatherDisplay:10.37,2013-04-22 11:31:00,
2013-04-22 04:36:00,35.8,30.5,30.27,SSW,202,0.0,0.0,81,0.00,CLR,FEW,0.02,WeatherDisplay:10.37,2013-04-22 11:36:00,
2013-04-22 04:41:00,35.4,30.2,30.27,SSW,202,0.0,0.0,81,0.00,CLR,FEW,0.02,WeatherDisplay:10.37,2013-04-22 11:41:00,
2013-04-22 04:46:00,35.4,30.2,30.27,SSW,202,0.0,0.0,81,0.00,CLR,FEW,0.02,WeatherDisplay:10.37,2013-04-22 11:46:00,
2013-04-22 04:51:00,35.2,30.3,30.27,SSW,202,2.3,2.3,82,0.00,CLR,FEW,0.02,WeatherDisplay:10.37,2013-04-22 11:51:00,
2013-04-22 04:56:00,34.9,29.9,30.27,SSW,202,0.0,0.0,82,0.00,CLR,FEW,0.02,WeatherDisplay:10.37,2013-04-22 11:56:00,
2013-04-22 05:01:00,34.9,29.9,30.27,SSW,202,0.0,0.0,82,0.00,CLR,FEW,0.02,WeatherDisplay:10.37,2013-04-22 12:01:00,
2013-04-22 05:06:00,34.7,29.8,30.27,SSW,202,0.0,0.0,82,0.00,CLR,FEW,0.02,WeatherDisplay:10.37,2013-04-22 12:06:00,
2013-04-22 05:11:00,34.3,29.4,30.28,SSW,202,0.0,0.0,82,0.00,CLR,FEW,0.02,WeatherDisplay:10.37,2013-04-22 12:11:00,
2013-04-22 05:16:00,34.3,29.4,30.28,SSW,202,0.0,0.0,82,0.00,CLR,FEW,0.02,WeatherDisplay:10.37,2013-04-22 12:16:00,
2013-04-22 05:21:00,34.3,29.4,30.28,South,180,3.5,3.5,82,0.00,CLR,FEW,0.02,WeatherDisplay:10.37,2013-04-22 12:21:00,
2013-04-22 05:26:00,34.3,29.4,30.28,South,180,3.5,3.5,82,0.00,CLR,FEW,0.02,WeatherDisplay:10.37,2013-04-22 12:26:00,
2013-04-22 05:31:00,34.0,29.1,30.28,South,180,0.0,0.0,82,0.00,CLR,FEW,0.02,WeatherDisplay:10.37,2013-04-22 12:31:00,
2013-04-22 05:36:00,33.8,28.9,30.29,South,180,0.0,0.0,82,0.00,CLR,FEW,0.02,WeatherDisplay:10.37,2013-04-22 12:36:00,
2013-04-22 05:41:00,33.6,28.7,30.29,SW,225,0.0,0.0,82,0.00,CLR,FEW,0.02,WeatherDisplay:10.37,2013-04-22 12:41:00,
2013-04-22 05:46:00,33.4,28.8,30.30,SW,225,0.0,0.0,83,0.00,CLR,FEW,0.02,WeatherDisplay:10.37,2013-04-22 12:46:00,
2013-04-22 05:51:00,32.9,28.3,30.30,West,270,2.3,2.3,83,0.00,CLR,FEW,0.02,WeatherDisplay:10.37,2013-04-22 12:51:00,
2013-04-22 05:56:00,32.7,28.1,30.31,West,270,0.0,0.0,83,0.00,CLR,FEW,0.02,WeatherDisplay:10.37,2013-04-22 12:56:00,
2013-04-22 06:01:00,32.7,28.1,30.31,West,270,0.0,0.0,83,0.00,CLR,FEW,0.02,WeatherDisplay:10.37,2013-04-22 13:01:00,
2013-04-22 06:06:00,32.7,28.1,30.32,West,270,0.0,0.0,83,0.00,CLR,FEW,0.02,WeatherDisplay:10.37,2013-04-22 13:06:00,
2013-04-22 06:11:00,32.4,27.8,30.31,West,270,0.0,0.0,83,0.00,CLR,FEW,0.02,WeatherDisplay:10.37,2013-04-22 13:11:00,
2013-04-22 06:16:00,32.4,28.1,30.32,West,270,0.0,0.0,84,0.00,CLR,FEW,0.02,WeatherDisplay:10.37,2013-04-22 13:16:00,
2013-04-22 06:21:00,32.4,28.1,30.32,West,270,0.0,0.0,84,0.00,CLR,FEW,0.02,WeatherDisplay:10.37,2013-04-22 13:21:00,
2013-04-22 06:26:00,32.4,28.1,30.32,West,270,0.0,0.0,84,0.00,CLR,FEW,0.02,WeatherDisplay:10.37,2013-04-22 13:26:00,
2013-04-22 06:31:00,32.5,28.2,30.32,West,270,0.0,0.0,84,0.00,CLR,FEW,0.02,WeatherDisplay:10.37,2013-04-22 13:31:00,
2013-04-22 06:36:00,32.4,28.1,30.33,West,270,0.0,0.0,84,0.00,CLR,FEW,0.02,WeatherDisplay:10.37,2013-04-22 13:36:00,
2013-04-22 06:41:00,32.4,28.1,30.33,West,270,0.0,0.0,84,0.00,CLR,FEW,0.02,WeatherDisplay:10.37,2013-04-22 13:41:00,
2013-04-22 06:46:00,32.4,28.1,30.33,West,270,0.0,0.0,84,0.00,CLR,FEW,0.02,WeatherDisplay:10.37,2013-04-22 13:46:00,
2013-04-22 06:51:00,34.3,30.0,30.33,WSW,248,0.0,0.0,84,0.00,CLR,FEW,0.00,WeatherDisplay:10.37,2013-04-22 13:51:00,
2013-04-22 06:56:00,38.7,34.2,30.34,WSW,248,0.0,0.0,84,0.00,RA,FEW,0.00,WeatherDisplay:10.37,2013-04-22 13:56:00,
2013-04-22 07:01:00,43.5,38.1,30.34,WSW,248,0.0,0.0,81,0.00,RA,FEW,0.00,WeatherDisplay:10.37,2013-04-22 14:01:00,
2013-04-22 07:06:00,45.5,39.0,30.34,WSW,248,0.0,0.0,78,0.00,CLR,FEW,0.00,WeatherDisplay:10.37,2013-04-22 14:06:00,
2013-04-22 07:11:00,47.8,40.0,30.34,West,270,0.0,0.0,74,0.00,CLR,FEW,0.00,WeatherDisplay:10.37,2013-04-22 14:11:00,
2013-04-22 07:16:00,51.3,41.4,30.34,West,270,0.0,0.0,69,0.00,CLR,FEW,0.00,WeatherDisplay:10.37,2013-04-22 14:16:00,
2013-04-22 07:21:00,54.1,43.0,30.35,West,270,0.0,0.0,66,0.00,CLR,FEW,0.00,WeatherDisplay:10.37,2013-04-22 14:21:00,
2013-04-22 07:26:00,56.5,43.6,30.36,West,270,0.0,0.0,62,0.00,CLR,FEW,0.00,WeatherDisplay:10.37,2013-04-22 14:26:00,
2013-04-22 07:31:00,54.5,40.0,30.36,WSW,248,0.0,0.0,58,0.00,CLR,FEW,0.00,WeatherDisplay:10.37,2013-04-22 14:31:00,
2013-04-22 07:36:00,54.1,40.1,30.36,SW,225,0.0,0.0,59,0.00,CLR,FEW,0.00,WeatherDisplay:10.37,2013-04-22 14:36:00,
2013-04-22 07:41:00,55.0,40.5,30.35,SW,225,1.3,1.3,58,0.00,CLR,FEW,0.00,WeatherDisplay:10.37,2013-04-22 14:41:00,
2013-04-22 07:46:00,55.2,39.8,30.36,SW,225,0.0,0.0,56,0.00,CLR,FEW,0.00,WeatherDisplay:10.37,2013-04-22 14:46:00,
2013-04-22 07:51:00,57.0,40.5,30.36,SW,225,0.0,0.0,54,0.00,CLR,FEW,0.00,WeatherDisplay:10.37,2013-04-22 14:51:00,
2013-04-22 07:56:00,56.8,39.9,30.36,SW,225,0.0,0.0,53,0.00,CLR,FEW,0.00,WeatherDisplay:10.37,2013-04-22 14:56:00,
2013-04-22 08:01:00,55.6,38.2,30.37,SSW,202,0.0,0.0,52,0.00,CLR,FEW,0.00,WeatherDisplay:10.37,2013-04-22 15:01:00,
2013-04-22 08:06:00,55.9,39.0,30.36,SW,225,0.0,0.0,53,0.00,CLR,FEW,0.00,WeatherDisplay:10.37,2013-04-22 15:06:00,
2013-04-22 08:11:00,55.9,39.0,30.37,ESE,112,2.9,2.9,53,0.00,CLR,FEW,0.00,WeatherDisplay:10.37,2013-04-22 15:11:00,
2013-04-22 08:16:00,52.5,35.9,30.37,ESE,112,3.5,3.5,53,0.00,CLR,FEW,0.00,WeatherDisplay:10.37,2013-04-22 15:16:00,
2013-04-22 08:21:00,51.4,35.8,30.37,ESE,112,1.1,0.0,55,0.00,CLR,FEW,0.00,WeatherDisplay:10.37,2013-04-22 15:21:00,
2013-04-22 08:26:00,52.0,36.3,30.37,NE,45,0.0,0.0,55,0.00,CLR,FEW,0.00,WeatherDisplay:10.37,2013-04-22 15:26:00,
2013-04-22 08:31:00,51.8,34.7,30.37,NNW,338,5.4,5.4,52,0.00,CLR,FEW,0.00,WeatherDisplay:10.37,2013-04-22 15:31:00,
2013-04-22 08:36:00,51.3,33.2,30.37,SE,135,6.9,6.9,50,0.00,CLR,FEW,0.00,WeatherDisplay:10.37,2013-04-22 15:36:00,
2013-04-22 08:41:00,50.2,32.7,30.37,NW,315,6.3,6.3,51,0.00,CLR,FEW,0.00,WeatherDisplay:10.37,2013-04-22 15:41:00,
2013-04-22 08:46:00,49.6,30.7,30.37,ESE,112,5.8,5.8,48,0.00,CLR,FEW,0.00,WeatherDisplay:10.37,2013-04-22 15:46:00,
2013-04-22 08:51:00,49.1,30.2,30.37,North,0,7.4,7.4,48,0.00,CLR,FEW,0.00,WeatherDisplay:10.37,2013-04-22 15:51:00,
2013-04-22 08:56:00,48.7,28.3,30.37,East,90,8.5,8.5,45,0.00,CLR,FEW,0.00,WeatherDisplay:10.37,2013-04-22 15:56:00,
2013-04-22 09:01:00,48.0,27.1,30.37,NE,45,12.7,12.7,44,0.00,CLR,FEW,0.00,WeatherDisplay:10.37,2013-04-22 16:01:00,
2013-04-22 09:06:00,47.5,26.1,30.37,ENE,68,15.0,15.0,43,0.00,CLR,FEW,0.00,WeatherDisplay:10.37,2013-04-22 16:06:00,
2013-04-22 09:11:00,47.7,27.3,30.37,NNE,22,8.1,8.1,45,0.00,CLR,FEW,0.00,WeatherDisplay:10.37,2013-04-22 16:11:00,
2013-04-22 09:16:00,47.3,25.9,30.37,East,90,8.1,8.1,43,0.00,CLR,FEW,0.00,WeatherDisplay:10.37,2013-04-22 16:16:00,
2013-04-22 09:21:00,47.7,26.8,30.37,NE,45,6.9,6.9,44,0.00,CLR,FEW,0.00,WeatherDisplay:10.37,2013-04-22 16:21:00,
2013-04-22 09:26:00,48.0,27.1,30.37,ENE,68,7.2,7.2,44,0.00,CLR,FEW,0.00,WeatherDisplay:10.37,2013-04-22 16:26:00,
2013-04-22 09:31:00,48.2,26.7,30.37,ESE,112,7.2,7.2,43,0.00,CLR,FEW,0.00,WeatherDisplay:10.37,2013-04-22 16:31:00,
2013-04-22 09:36:00,48.4,27.4,30.37,North,0,8.1,8.1,44,0.00,CLR,FEW,0.00,WeatherDisplay:10.37,2013-04-22 16:36:00,
2013-04-22 09:41:00,48.7,27.8,30.37,NNW,338,8.1,8.1,44,0.00,CLR,FEW,0.00,WeatherDisplay:10.37,2013-04-22 16:41:00,
2013-04-22 09:46:00,49.3,28.3,30.37,NE,45,3.5,3.5,44,0.00,CLR,FEW,0.00,WeatherDisplay:10.37,2013-04-22 16:46:00,
2013-04-22 09:51:00,49.6,27.5,30.37,ENE,68,3.5,3.5,42,0.00,CLR,FEW,0.00,WeatherDisplay:10.37,2013-04-22 16:51:00,
2013-04-22 09:56:00,49.6,28.0,30.37,NE,45,4.5,0.0,43,0.00,CLR,FEW,0.00,WeatherDisplay:10.37,2013-04-22 16:56:00,
2013-04-22 10:01:00,50.5,28.8,30.37,NNE,22,2.5,2.5,43,0.00,CLR,FEW,0.00,WeatherDisplay:10.37,2013-04-22 17:01:00,
2013-04-22 10:06:00,51.1,28.2,30.37,NW,315,8.1,8.1,41,0.00,CLR,FEW,0.00,WeatherDisplay:10.37,2013-04-22 17:06:00,
2013-04-22 10:11:00,51.1,28.2,30.37,North,0,8.0,8.0,41,0.00,CLR,FEW,0.00,WeatherDisplay:10.37,2013-04-22 17:11:00,
2013-04-22 10:16:00,51.4,28.5,30.37,North,0,3.8,3.8,41,0.00,CLR,FEW,0.00,WeatherDisplay:10.37,2013-04-22 17:16:00,
2013-04-22 10:21:00,51.4,28.5,30.37,North,0,9.2,9.2,41,0.00,CLR,FEW,0.00,WeatherDisplay:10.37,2013-04-22 17:21:00,
2013-04-22 10:26:00,51.4,27.3,30.37,North,0,6.3,6.3,39,0.00,CLR,FEW,0.00,WeatherDisplay:10.37,2013-04-22 17:26:00,
2013-04-22 10:31:00,51.6,28.7,30.37,West,270,6.9,6.9,41,0.00,CLR,FEW,0.00,WeatherDisplay:10.37,2013-04-22 17:31:00,
2013-04-22 10:36:00,52.3,29.3,30.37,NNE,22,3.5,3.5,41,0.00,CLR,FEW,0.00,WeatherDisplay:10.37,2013-04-22 17:36:00,
2013-04-22 10:41:00,52.5,28.2,30.37,ENE,68,3.5,4.0,39,0.00,CLR,FEW,0.00,WeatherDisplay:10.37,2013-04-22 17:41:00,
2013-04-22 10:46:00,52.5,28.9,30.37,ENE,68,3.5,3.5,40,0.00,CLR,FEW,0.00,WeatherDisplay:10.37,2013-04-22 17:46:00,
2013-04-22 10:51:00,53.2,29.5,30.37,ENE,68,5.8,5.8,40,0.00,CLR,FEW,0.00,WeatherDisplay:10.37,2013-04-22 17:51:00,
2013-04-22 10:56:00,53.2,28.9,30.37,North,0,4.6,4.7,39,0.00,CLR,FEW,0.00,WeatherDisplay:10.37,2013-04-22 17:56:00,
2013-04-22 11:01:00,53.4,29.1,30.37,West,270,5.1,5.1,39,0.00,CLR,FEW,0.00,WeatherDisplay:10.37,2013-04-22 18:01:00,
2013-04-22 11:06:00,53.2,28.3,30.37,ESE,112,6.9,6.9,38,0.00,CLR,FEW,0.00,WeatherDisplay:10.37,2013-04-22 18:06:00,
2013-04-22 11:11:00,52.9,27.9,30.37,SE,135,2.3,2.7,38,0.00,CLR,FEW,0.00,WeatherDisplay:10.37,2013-04-22 18:11:00,
2013-04-22 11:16:00,53.4,29.7,30.36,SSE,158,6.9,6.9,40,0.00,CLR,FEW,0.00,WeatherDisplay:10.37,2013-04-22 18:16:00,
2013-04-22 11:21:00,53.8,30.0,30.37,South,180,6.9,0.0,40,0.00,CLR,FEW,0.00,WeatherDisplay:10.37,2013-04-22 18:21:00,
2013-04-22 11:26:00,54.0,30.2,30.37,ESE,112,3.5,3.5,40,0.00,CLR,FEW,0.00,WeatherDisplay:10.37,2013-04-22 18:26:00,
2013-04-22 11:31:00,53.8,29.4,30.37,ESE,112,8.1,8.1,39,0.00,CLR,FEW,0.00,WeatherDisplay:10.37,2013-04-22 18:31:00,
2013-04-22 11:36:00,53.8,29.4,30.37,South,180,8.1,8.1,39,0.00,CLR,FEW,0.00,WeatherDisplay:10.37,2013-04-22 18:36:00,
2013-04-22 11:41:00,54.0,30.2,30.37,SSE,158,11.6,11.6,40,0.00,CLR,FEW,0.00,WeatherDisplay:10.37,2013-04-22 18:41:00,
2013-04-22 11:46:00,54.1,29.7,30.36,South,180,9.6,9.6,39,0.00,CLR,FEW,0.00,WeatherDisplay:10.37,2013-04-22 18:46:00,
2013-04-22 11:51:00,54.1,29.7,30.36,SSW,202,5.8,0.0,39,0.00,CLR,FEW,0.00,WeatherDisplay:10.37,2013-04-22 18:51:00,
2013-04-22 11:56:00,55.2,30.7,30.36,SSW,202,0.0,0.0,39,0.00,CLR,FEW,0.00,WeatherDisplay:10.37,2013-04-22 18:56:00,
2013-04-22 12:01:00,55.6,30.4,30.36,SE,135,0.0,0.0,38,0.00,CLR,FEW,0.00,WeatherDisplay:10.37,2013-04-22 19:01:00,
2013-04-22 12:06:00,55.6,30.4,30.35,SE,135,5.8,5.8,38,0.00,CLR,FEW,0.00,WeatherDisplay:10.37,2013-04-22 19:06:00,
2013-04-22 12:11:00,55.6,29.7,30.35,South,180,11.5,11.5,37,0.00,CLR,FEW,0.00,WeatherDisplay:10.37,2013-04-22 19:11:00,
2013-04-22 12:16:00,55.4,29.5,30.35,SSE,158,6.9,6.9,37,0.00,CLR,FEW,0.00,WeatherDisplay:10.37,2013-04-22 19:16:00,
2013-04-22 12:21:00,55.2,28.7,30.35,South,180,8.1,8.1,36,0.00,CLR,FEW,0.00,WeatherDisplay:10.37,2013-04-22 19:21:00,
2013-04-22 12:26:00,55.0,29.2,30.36,ESE,112,3.5,3.5,37,0.00,CLR,FEW,0.00,WeatherDisplay:10.37,2013-04-22 19:26:00,
2013-04-22 12:31:00,55.2,30.0,30.35,South,180,2.3,2.3,38,0.00,CLR,FEW,0.00,WeatherDisplay:10.37,2013-04-22 19:31:00,
2013-04-22 12:36:00,55.6,30.4,30.34,South,180,5.8,5.8,38,0.00,CLR,FEW,0.00,WeatherDisplay:10.37,2013-04-22 19:36:00,
2013-04-22 12:41:00,55.9,30.0,30.34,SSE,158,9.2,9.2,37,0.00,CLR,FEW,0.00,WeatherDisplay:10.37,2013-04-22 19:41:00,
2013-04-22 12:46:00,55.9,30.0,30.34,SE,135,4.7,4.7,37,0.00,CLR,FEW,0.00,WeatherDisplay:10.37,2013-04-22 19:46:00,
2013-04-22 12:51:00,56.1,30.8,30.34,NNE,22,0.0,0.0,38,0.00,CLR,FEW,0.00,WeatherDisplay:10.37,2013-04-22 19:51:00,
2013-04-22 12:56:00,56.5,31.2,30.34,NNW,338,5.8,5.8,38,0.00,CLR,FEW,0.00,WeatherDisplay:10.37,2013-04-22 19:56:00,
2013-04-22 13:01:00,56.5,30.5,30.34,NNW,338,11.5,11.6,37,0.00,CLR,FEW,0.00,WeatherDisplay:10.37,2013-04-22 20:01:00,
2013-04-22 13:06:00,56.3,29.7,30.34,North,0,4.6,5.1,36,0.00,CLR,FEW,0.00,WeatherDisplay:10.37,2013-04-22 20:06:00,
2013-04-22 13:11:00,55.6,29.0,30.34,East,90,6.9,6.9,36,0.00,CLR,FEW,0.00,WeatherDisplay:10.37,2013-04-22 20:11:00,
2013-04-22 13:16:00,55.2,28.7,30.33,SE,135,6.9,6.9,36,0.00,CLR,FEW,0.00,WeatherDisplay:10.37,2013-04-22 20:16:00,
2013-04-22 13:21:00,55.4,28.9,30.33,West,270,5.8,5.8,36,0.00,CLR,FEW,0.00,WeatherDisplay:10.37,2013-04-22 20:21:00,
2013-04-22 13:26:00,55.9,29.3,30.33,West,270,5.8,5.8,36,0.00,CLR,FEW,0.00,WeatherDisplay:10.37,2013-04-22 20:26:00,
2013-04-22 13:31:00,55.9,30.0,30.33,West,270,5.8,5.8,37,0.00,CLR,FEW,0.00,WeatherDisplay:10.37,2013-04-22 20:31:00,
2013-04-22 13:36:00,56.3,31.0,30.33,WSW,248,0.0,0.0,38,0.00,CLR,FEW,0.00,WeatherDisplay:10.37,2013-04-22 20:36:00,
2013-04-22 13:41:00,56.3,30.3,30.33,WSW,248,0.0,0.0,37,0.00,CLR,FEW,0.00,WeatherDisplay:10.37,2013-04-22 20:41:00,
2013-04-22 13:46:00,56.5,29.8,30.32,WNW,292,8.1,8.1,36,0.00,CLR,FEW,0.00,WeatherDisplay:10.37,2013-04-22 20:46:00,
2013-04-22 13:51:00,56.5,29.8,30.32,SSW,202,3.5,3.5,36,0.00,CLR,FEW,0.00,WeatherDisplay:10.37,2013-04-22 20:51:00,
2013-04-22 13:56:00,56.8,30.1,30.33,SSW,202,3.5,3.5,36,0.57,RA,FEW,0.57,WeatherDisplay:10.37,2013-04-22 20:56:00,
2013-04-22 14:01:00,56.8,30.1,30.33,SSW,202,3.5,3.5,36,0.57,RA,FEW,0.57,WeatherDisplay:10.37,2013-04-22 21:01:00,
2013-04-22 14:06:00,56.8,30.1,30.32,SSW,202,3.5,3.5,36,0.57,CLR,FEW,0.57,WeatherDisplay:10.37,2013-04-22 21:06:00,
2013-04-22 14:11:00,56.8,30.1,30.32,SSW,204,3.5,3.5,36,0.57,CLR,FEW,0.57,WeatherDisplay:10.37,2013-04-22 21:11:00,
2013-04-22 14:16:00,56.8,30.1,30.32,SSW,204,3.5,3.5,36,0.57,CLR,FEW,0.57,WeatherDisplay:10.37,2013-04-22 21:16:00,
2013-04-22 14:21:00,56.8,30.1,30.32,SSW,204,3.5,3.5,36,0.57,CLR,FEW,0.57,WeatherDisplay:10.37,2013-04-22 21:21:00,
2013-04-22 14:26:00,56.8,30.1,30.32,SSW,204,3.5,3.5,36,0.57,CLR,FEW,0.57,WeatherDisplay:10.37,2013-04-22 21:26:00,
2013-04-22 14:31:00,56.8,30.1,30.32,SSW,204,3.5,3.5,36,0.57,CLR,FEW,0.57,WeatherDisplay:10.37,2013-04-22 21:31:00,
2013-04-22 14:36:00,56.8,30.1,30.32,SSW,204,3.5,3.5,36,0.57,CLR,FEW,0.57,WeatherDisplay:10.37,2013-04-22 21:36:00,
2013-04-22 14:41:00,56.8,30.1,30.32,SSW,204,3.5,3.5,36,0.57,CLR,FEW,0.57,WeatherDisplay:10.37,2013-04-22 21:41:00,
2013-04-22 14:46:00,56.8,30.1,30.31,SSW,204,3.5,3.5,36,0.57,CLR,FEW,0.57,WeatherDisplay:10.37,2013-04-22 21:46:00,
2013-04-22 14:51:00,56.8,30.1,30.31,SSW,204,3.5,3.5,36,0.57,CLR,FEW,0.57,WeatherDisplay:10.37,2013-04-22 21:51:00,
2013-04-22 14:56:00,56.8,30.1,30.31,SSW,204,3.5,3.5,36,0.00,CLR,FEW,0.57,WeatherDisplay:10.37,2013-04-22 21:56:00,
2013-04-22 15:01:00,56.8,30.1,30.31,SSW,204,3.5,3.5,36,0.00,CLR,FEW,0.57,WeatherDisplay:10.37,2013-04-22 22:01:00,
2013-04-22 15:06:00,56.8,30.1,30.30,SSW,204,3.5,3.5,36,0.00,CLR,FEW,0.57,WeatherDisplay:10.37,2013-04-22 22:06:00,
2013-04-22 15:11:00,56.8,30.1,30.30,SSW,204,3.5,3.5,36,0.00,CLR,FEW,0.57,WeatherDisplay:10.37,2013-04-22 22:11:00,
2013-04-22 15:16:00,56.8,30.1,30.30,SSW,204,3.5,3.5,36,0.00,CLR,FEW,0.57,WeatherDisplay:10.37,2013-04-22 22:16:00,
2013-04-22 15:21:00,56.8,30.1,30.30,SSW,204,3.5,3.5,36,0.00,CLR,FEW,0.57,WeatherDisplay:10.37,2013-04-22 22:21:00,
2013-04-22 15:26:00,56.8,30.1,30.30,SSW,204,3.5,3.5,36,0.00,CLR,FEW,0.57,WeatherDisplay:10.37,2013-04-22 22:26:00,
2013-04-22 15:31:00,56.8,30.1,30.29,SSW,204,3.5,3.5,36,0.00,CLR,FEW,0.57,WeatherDisplay:10.37,2013-04-22 22:31:00,
2013-04-22 15:36:00,56.8,30.1,30.30,SSW,204,3.5,3.5,36,0.00,CLR,FEW,0.57,WeatherDisplay:10.37,2013-04-22 22:36:00,
2013-04-22 15:41:00,56.8,30.1,30.29,SSW,204,3.5,3.5,36,0.00,CLR,FEW,0.57,WeatherDisplay:10.37,2013-04-22 22:41:00,
2013-04-22 15:46:00,56.8,30.1,30.29,SSW,204,3.5,3.5,36,0.00,CLR,FEW,0.57,WeatherDisplay:10.37,2013-04-22 22:46:00,
2013-04-22 15:51:00,56.8,30.1,30.29,SSW,204,3.5,3.5,36,0.00,CLR,FEW,0.57,WeatherDisplay:10.37,2013-04-22 22:51:00,
2013-04-22 15:56:00,56.8,30.1,30.29,SSW,204,3.5,3.5,36,0.00,CLR,FEW,0.57,WeatherDisplay:10.37,2013-04-22 22:56:00,
2013-04-22 16:01:00,56.8,30.1,30.29,SSW,204,3.5,3.5,36,0.00,CLR,FEW,0.57,WeatherDisplay:10.37,2013-04-22 23:01:00,
2013-04-22 16:06:00,56.8,30.1,30.29,SSW,204,3.5,3.5,36,0.00,CLR,FEW,0.57,WeatherDisplay:10.37,2013-04-22 23:06:00,
2013-04-22 16:11:00,56.8,30.1,30.29,SSW,204,3.5,3.5,36,0.00,CLR,FEW,0.57,WeatherDisplay:10.37,2013-04-22 23:11:00,
2013-04-22 16:16:00,56.8,30.1,30.29,SSW,204,3.5,3.5,36,0.00,CLR,FEW,0.57,WeatherDisplay:10.37,2013-04-22 23:16:00,
2013-04-22 16:21:00,56.8,30.1,30.29,SSW,204,3.5,3.5,36,0.00,CLR,FEW,0.57,WeatherDisplay:10.37,2013-04-22 23:21:00,
2013-04-22 16:26:00,56.8,30.1,30.29,SSW,204,3.5,3.5,36,0.00,CLR,FEW,0.57,WeatherDisplay:10.37,2013-04-22 23:26:00,
2013-04-22 16:31:00,56.8,30.1,30.28,SSW,204,3.5,3.5,36,0.00,CLR,FEW,0.57,WeatherDisplay:10.37,2013-04-22 23:31:00,
2013-04-22 16:36:00,56.8,30.1,30.28,SSW,204,3.5,3.5,36,0.00,CLR,FEW,0.57,WeatherDisplay:10.37,2013-04-22 23:36:00,
2013-04-22 16:41:00,56.8,30.1,30.28,SSW,204,3.5,3.5,36,0.00,CLR,FEW,0.57,WeatherDisplay:10.37,2013-04-22 23:41:00,
2013-04-22 16:46:00,56.8,30.1,30.28,SSW,204,3.5,3.5,36,0.00,CLR,FEW,0.57,WeatherDisplay:10.37,2013-04-22 23:46:00,
2013-04-22 16:51:00,56.8,30.1,30.27,SSW,204,3.5,3.5,36,0.00,CLR,FEW,0.57,WeatherDisplay:10.37,2013-04-22 23:51:00,
2013-04-22 16:56:00,56.8,30.1,30.27,SSW,204,3.5,3.5,36,0.00,CLR,FEW,0.57,WeatherDisplay:10.37,2013-04-22 23:56:00,
2013-04-22 17:01:00,56.8,30.1,30.27,SSW,204,3.5,3.5,36,0.00,CLR,FEW,0.57,WeatherDisplay:10.37,2013-04-23 00:01:00,
2013-04-22 17:06:00,56.8,30.1,30.27,SSW,204,3.5,3.5,36,0.00,CLR,FEW,0.57,WeatherDisplay:10.37,2013-04-23 00:06:00,
2013-04-22 17:11:00,56.8,30.1,30.28,SSW,204,3.5,3.5,36,0.00,CLR,FEW,0.57,WeatherDisplay:10.37,2013-04-23 00:11:00,
2013-04-22 17:16:00,56.8,30.1,30.27,SSW,204,3.5,3.5,36,0.00,CLR,FEW,0.57,WeatherDisplay:10.37,2013-04-23 00:16:00,
2013-04-22 17:21:00,56.8,30.1,30.27,SSW,204,3.5,3.5,36,0.00,CLR,FEW,0.57,WeatherDisplay:10.37,2013-04-23 00:21:00,
2013-04-22 17:26:00,56.8,30.1,30.27,SSW,204,3.5,3.5,36,0.00,CLR,FEW,0.57,WeatherDisplay:10.37,2013-04-23 00:26:00,
2013-04-22 17:31:00,56.8,30.1,30.27,SSW,204,3.5,3.5,36,0.00,CLR,FEW,0.57,WeatherDisplay:10.37,2013-04-23 00:31:00,
2013-04-22 17:36:00,56.8,30.1,30.27,SSW,204,3.5,3.5,36,0.00,CLR,FEW,0.57,WeatherDisplay:10.37,2013-04-23 00:36:00,
2013-04-22 17:41:00,56.8,30.1,30.27,SSW,204,3.5,3.5,36,0.00,CLR,FEW,0.57,WeatherDisplay:10.37,2013-04-23 00:41:00,
2013-04-22 17:46:00,56.8,30.1,30.27,SSW,204,3.5,3.5,36,0.00,CLR,FEW,0.57,WeatherDisplay:10.37,2013-04-23 00:46:00,
2013-04-22 17:51:00,56.8,30.1,30.27,SSW,204,3.5,3.5,36,0.00,CLR,FEW,0.57,WeatherDisplay:10.37,2013-04-23 00:51:00,
2013-04-22 17:56:00,56.5,26.9,30.27,WNW,292,6.9,6.9,32,0.00,CLR,FEW,0.57,WeatherDisplay:10.37,2013-04-23 00:56:00,
2013-04-22 18:01:00,56.5,26.2,30.27,WNW,292,11.6,11.6,31,0.00,CLR,FEW,0.57,WeatherDisplay:10.37,2013-04-23 01:01:00,
2013-04-22 18:06:00,56.8,26.5,30.27,WNW,292,10.4,10.4,31,0.00,CLR,FEW,0.57,WeatherDisplay:10.37,2013-04-23 01:06:00,
2013-04-22 18:11:00,57.2,26.8,30.27,West,270,3.5,3.5,31,0.00,CLR,FEW,0.57,WeatherDisplay:10.37,2013-04-23 01:11:00,
2013-04-22 18:16:00,57.4,27.0,30.27,West,270,6.9,6.9,31,0.00,CLR,FEW,0.57,WeatherDisplay:10.37,2013-04-23 01:16:00,
2013-04-22 18:21:00,57.2,26.8,30.27,WNW,292,8.1,8.1,31,0.00,CLR,FEW,0.57,WeatherDisplay:10.37,2013-04-23 01:21:00,
2013-04-22 18:26:00,57.0,26.6,30.28,WNW,292,10.4,10.4,31,0.00,CLR,FEW,0.57,WeatherDisplay:10.37,2013-04-23 01:26:00,
2013-04-22 18:31:00,57.0,27.4,30.28,West,270,5.8,5.8,32,0.00,CLR,FEW,0.57,WeatherDisplay:10.37,2013-04-23 01:31:00,
2013-04-22 18:36:00,56.5,26.9,30.28,WNW,292,10.4,10.4,32,0.00,CLR,FEW,0.57,WeatherDisplay:10.37,2013-04-23 01:36:00,
2013-04-22 18:41:00,56.3,26.8,30.28,WNW,292,5.8,5.8,32,0.00,CLR,FEW,0.57,WeatherDisplay:10.37,2013-04-23 01:41:00,
2013-04-22 18:46:00,56.1,27.4,30.28,WNW,292,4.0,4.0,33,0.00,CLR,FEW,0.57,WeatherDisplay:10.37,2013-04-23 01:46:00,
2013-04-22 18:51:00,56.1,27.4,30.28,WNW,292,2.5,2.5,33,0.00,CLR,FEW,0.57,WeatherDisplay:10.37,2013-04-23 01:51:00,
2013-04-22 18:56:00,55.9,27.2,30.28,WNW,292,6.9,6.9,33,0.00,CLR,FEW,0.57,WeatherDisplay:10.37,2013-04-23 01:56:00,
2013-04-22 19:01:00,55.2,27.3,30.29,WNW,292,7.4,7.4,34,0.00,CLR,FEW,0.57,WeatherDisplay:10.37,2013-04-23 02:01:00,
2013-04-22 19:06:00,54.3,26.5,30.29,West,270,6.9,0.0,34,0.00,CLR,FEW,0.57,WeatherDisplay:10.37,2013-04-23 02:06:00,
2013-04-22 19:11:00,53.4,26.4,30.29,WNW,292,4.6,4.6,35,0.00,CLR,FEW,0.57,WeatherDisplay:10.37,2013-04-23 02:11:00,
2013-04-22 19:16:00,53.2,27.6,30.29,NW,315,2.7,2.7,37,0.00,CLR,FEW,0.57,WeatherDisplay:10.37,2013-04-23 02:16:00,
2013-04-22 19:21:00,52.9,26.6,30.29,NW,315,0.0,0.0,36,0.00,CLR,FEW,0.57,WeatherDisplay:10.37,2013-04-23 02:21:00,
2013-04-22 19:26:00,52.3,27.5,30.29,WNW,292,0.0,0.0,38,0.00,CLR,FEW,0.57,WeatherDisplay:10.37,2013-04-23 02:26:00,
2013-04-22 19:31:00,52.0,27.8,30.29,NW,315,0.0,0.0,39,0.00,CLR,FEW,0.57,WeatherDisplay:10.37,2013-04-23 02:31:00,
2013-04-22 19:36:00,51.6,27.4,30.29,NW,315,0.0,0.0,39,0.00,CLR,FEW,0.57,WeatherDisplay:10.37,2013-04-23 02:36:00,
2013-04-22 19:41:00,51.1,27.6,30.30,NW,315,0.0,0.0,40,0.00,CLR,FEW,0.57,WeatherDisplay:10.37,2013-04-23 02:41:00,
2013-04-22 19:46:00,50.5,28.3,30.30,NW,315,2.3,2.3,42,0.00,CLR,FEW,0.57,WeatherDisplay:10.37,2013-04-23 02:46:00,
2013-04-22 19:51:00,49.8,28.8,30.30,SSW,202,0.0,0.0,44,0.00,CLR,FEW,0.57,WeatherDisplay:10.37,2013-04-23 02:51:00,
2013-04-22 19:56:00,49.1,28.7,30.30,SSE,158,5.1,5.1,45,0.00,CLR,FEW,0.57,WeatherDisplay:10.37,2013-04-23 02:56:00,
2013-04-22 20:01:00,48.7,28.9,30.31,SSE,158,3.5,3.5,46,0.00,CLR,FEW,0.57,WeatherDisplay:10.37,2013-04-23 03:01:00,
2013-04-22 20:06:00,48.0,28.2,30.31,SSE,158,0.0,0.0,46,0.00,CLR,FEW,0.57,WeatherDisplay:10.37,2013-04-23 03:06:00,
2013-04-22 20:11:00,47.5,27.7,30.31,SSE,158,0.0,0.0,46,0.00,CLR,FEW,0.57,WeatherDisplay:10.37,2013-04-23 03:11:00,
2013-04-22 20:16:00,47.1,27.9,30.31,SSE,158,0.0,0.0,47,0.00,CLR,FEW,0.57,WeatherDisplay:10.37,2013-04-23 03:16:00,
2013-04-22 20:21:00,46.8,28.1,30.32,SSE,158,0.0,0.0,48,0.00,CLR,FEW,0.57,WeatherDisplay:10.37,2013-04-23 03:21:00,
2013-04-22 20:26:00,46.2,28.1,30.32,SSE,158,0.0,0.0,49,0.00,CLR,FEW,0.57,WeatherDisplay:10.37,2013-04-23 03:26:00,
2013-04-22 20:31:00,45.5,28.4,30.32,SSE,158,0.0,0.0,51,0.00,CLR,FEW,0.57,WeatherDisplay:10.37,2013-04-23 03:31:00,
2013-04-22 20:36:00,44.8,28.2,30.33,SSE,158,0.0,0.0,52,0.00,CLR,FEW,0.57,WeatherDisplay:10.37,2013-04-23 03:36:00,
2013-04-22 20:41:00,43.7,28.1,30.33,SE,135,4.6,4.6,54,0.00,CLR,FEW,0.57,WeatherDisplay:10.37,2013-04-23 03:41:00,
2013-04-22 20:46:00,43.2,27.6,30.32,SE,135,0.0,0.0,54,0.00,CLR,FEW,0.57,WeatherDisplay:10.37,2013-04-23 03:46:00,
2013-04-22 20:51:00,43.2,28.5,30.33,SE,135,0.0,0.0,56,0.00,CLR,FEW,0.57,WeatherDisplay:10.37,2013-04-23 03:51:00,
2013-04-22 20:56:00,42.6,28.0,30.33,SE,135,0.0,0.0,56,0.00,CLR,FEW,0.57,WeatherDisplay:10.37,2013-04-23 03:56:00,
2013-04-22 21:01:00,42.4,28.3,30.33,SE,135,0.0,0.0,57,0.00,CLR,FEW,0.57,WeatherDisplay:10.37,2013-04-23 04:01:00,
2013-04-22 21:06:00,42.1,28.4,30.33,SE,135,0.0,0.0,58,0.00,CLR,FEW,0.57,WeatherDisplay:10.37,2013-04-23 04:06:00,
2013-04-22 21:11:00,42.1,28.4,30.33,SE,135,0.0,0.0,58,0.00,CLR,FEW,0.57,WeatherDisplay:10.37,2013-04-23 04:11:00,
2013-04-22 21:16:00,41.9,28.2,30.33,SE,135,0.0,0.0,58,0.00,CLR,FEW,0.57,WeatherDisplay:10.37,2013-04-23 04:16:00,
2013-04-22 21:21:00,41.5,28.3,30.34,SE,135,0.0,0.0,59,0.00,CLR,FEW,0.57,WeatherDisplay:10.37,2013-04-23 04:21:00,
2013-04-22 21:26:00,41.2,28.3,30.34,SE,135,0.0,0.0,60,0.00,CLR,FEW,0.57,WeatherDisplay:10.37,2013-04-23 04:26:00,
2013-04-22 21:31:00,40.8,28.0,30.33,SE,135,0.0,0.0,60,0.00,CLR,FEW,0.57,WeatherDisplay:10.37,2013-04-23 04:31:00,
2013-04-22 21:36:00,40.6,28.2,30.33,SE,135,0.0,0.0,61,0.00,CLR,FEW,0.57,WeatherDisplay:10.37,2013-04-23 04:36:00,
2013-04-22 21:41:00,40.3,27.9,30.34,SE,135,0.0,0.0,61,0.00,CLR,FEW,0.57,WeatherDisplay:10.37,2013-04-23 04:41:00,
2013-04-22 21:46:00,40.1,28.1,30.34,SE,135,0.0,0.0,62,0.00,CLR,FEW,0.57,WeatherDisplay:10.37,2013-04-23 04:46:00,
2013-04-22 21:51:00,40.1,28.1,30.34,SSE,158,0.0,0.0,62,0.00,CLR,FEW,0.57,WeatherDisplay:10.37,2013-04-23 04:51:00,
2013-04-22 21:56:00,39.7,27.8,30.35,SSE,158,0.0,0.0,62,0.00,CLR,FEW,0.57,WeatherDisplay:10.37,2013-04-23 04:56:00,
2013-04-22 22:01:00,39.4,27.8,30.34,SSE,158,0.0,0.0,63,0.00,CLR,FEW,0.57,WeatherDisplay:10.37,2013-04-23 05:01:00,
2013-04-22 22:06:00,39.2,27.7,30.35,SSE,158,0.0,0.0,63,0.00,CLR,FEW,0.57,WeatherDisplay:10.37,2013-04-23 05:06:00,
2013-04-22 22:11:00,39.0,27.5,30.34,SSE,158,0.0,0.0,63,0.00,CLR,FEW,0.57,WeatherDisplay:10.37,2013-04-23 05:11:00,
2013-04-22 22:16:00,39.0,27.9,30.34,SSE,158,0.0,0.0,64,0.00,CLR,FEW,0.57,WeatherDisplay:10.37,2013-04-23 05:16:00,
2013-04-22 22:21:00,39.0,28.2,30.34,SSE,158,0.0,0.0,65,0.00,CLR,FEW,0.57,WeatherDisplay:10.37,2013-04-23 05:21:00,
2013-04-22 22:26:00,38.8,28.1,30.35,SSE,158,0.0,0.0,65,0.00,CLR,FEW,0.57,WeatherDisplay:10.37,2013-04-23 05:26:00,
2013-04-22 22:31:00,38.8,28.4,30.35,SSE,158,0.0,0.0,66,0.00,CLR,FEW,0.57,WeatherDisplay:10.37,2013-04-23 05:31:00,
2013-04-22 22:36:00,38.3,27.9,30.35,SSE,158,0.0,0.0,66,0.00,CLR,FEW,0.57,WeatherDisplay:10.37,2013-04-23 05:36:00,
2013-04-22 22:41:00,37.9,27.6,30.35,SSE,158,0.0,0.0,66,0.00,CLR,FEW,0.57,WeatherDisplay:10.37,2013-04-23 05:41:00,
2013-04-22 22:46:00,37.6,27.2,30.35,SSE,158,0.0,0.0,66,0.00,CLR,FEW,0.57,WeatherDisplay:10.37,2013-04-23 05:46:00,
2013-04-22 22:51:00,37.4,27.4,30.35,SSE,158,0.0,0.0,67,0.00,CLR,FEW,0.57,WeatherDisplay:10.37,2013-04-23 05:51:00,
2013-04-22 22:56:00,37.2,27.3,30.35,SSE,158,0.0,0.0,67,0.00,CLR,FEW,0.57,WeatherDisplay:10.37,2013-04-23 05:56:00,
2013-04-22 23:01:00,37.0,27.5,30.35,SSE,158,0.0,0.0,68,0.00,CLR,FEW,0.57,WeatherDisplay:10.37,2013-04-23 06:01:00,
2013-04-22 23:06:00,37.0,27.5,30.35,SSE,158,0.0,0.0,68,0.00,CLR,FEW,0.57,WeatherDisplay:10.37,2013-04-23 06:06:00,
2013-04-22 23:11:00,36.9,27.6,30.35,SSE,158,0.0,0.0,69,0.00,CLR,FEW,0.57,WeatherDisplay:10.37,2013-04-23 06:11:00,
2013-04-22 23:16:00,36.7,27.8,30.36,SSE,158,0.0,0.0,70,0.00,CLR,FEW,0.57,WeatherDisplay:10.37,2013-04-23 06:16:00,
2013-04-22 23:21:00,36.5,27.6,30.36,SSE,158,0.0,0.0,70,0.00,CLR,FEW,0.57,WeatherDisplay:10.37,2013-04-23 06:21:00,
2013-04-22 23:26:00,36.1,27.3,30.36,SSE,158,0.0,0.0,70,0.00,CLR,FEW,0.57,WeatherDisplay:10.37,2013-04-23 06:26:00,
2013-04-22 23:31:00,36.0,27.1,30.36,SSE,158,0.0,0.0,70,0.00,CLR,FEW,0.57,WeatherDisplay:10.37,2013-04-23 06:31:00,
2013-04-22 23:36:00,35.8,26.9,30.36,SSE,158,0.0,0.0,70,0.00,CLR,FEW,0.57,WeatherDisplay:10.37,2013-04-23 06:36:00,
2013-04-22 23:41:00,35.8,26.9,30.35,SSE,158,0.0,0.0,70,0.00,CLR,FEW,0.57,WeatherDisplay:10.37,2013-04-23 06:41:00,
2013-04-22 23:46:00,35.4,26.9,30.35,SSE,158,0.0,0.0,71,0.00,CLR,FEW,0.57,WeatherDisplay:10.37,2013-04-23 06:46:00,
2013-04-22 23:51:00,35.4,26.9,30.36,SSE,158,0.0,0.0,71,0.00,CLR,FEW,0.57,WeatherDisplay:10.37,2013-04-23 06:51:00,
2013-04-22 23:56:00,35.2,27.1,30.36,SSE,158,0.0,0.0,72,0.00,CLR,FEW,0.57,WeatherDisplay:10.37,2013-04-23 06:56:00,